Flag for Germany Weather past 2 weeks in Minden, North Rhine-Westphalia, Germany

Now
52 °F

Cool.


Feels Like: 47 °F
Forecast: 45 / 51 °F
Wind: 14 mph from Southwest

Location: Bueckeburg

Current Time: Mar 28, 2015 at 3:24:38 PM

Latest Report: Mar 28, 2015 at 2:20 PM


Visibility: 3 mi

Pressure: 29.95 "Hg

Humidity: 50%

Dew point: 34 °F

Location of MindenLocation

Historic Weather in Minden — Graph

°F

Minden temperature yesterday

Maximum temperature yesterday: 45 °F (at 8:20 AM)
Minimum temperature yesterday: 41 °F (at 1:20 AM)
Average temperature yesterday: 43 °F

Past Weeks' High & Low Weather Summary

 TemperatureHumidityPressure
High63 °F (Mar 25, 3:20 PM)100% (Mar 18, 3:20 AM)30.39 "Hg (Mar 18, 3:20 AM)
Low30 °F (Mar 20, 5:20 AM)39% (Mar 25, 3:20 PM)29.62 "Hg (Mar 25, 3:20 PM)
Average42 °F78%30.12 "Hg
* Reported Mar 13 1:20 PM — Mar 28 1:20 PM, Minden, Weather by CustomWeather, © 2015

Note: Actual official high and low records may vary slightly from our data, if they occured in-between our weather recording intervals... More about our weather records

Advertising

Minden weather history for previous 24 hours

 ConditionsComfort  
Time TempWeatherWind HumidityBarometerVisibility
1:20 PM
Sat, Mar 28
52 °FCool.13 mph50%30.01 "Hg3 mi
12:20 PM50 °FCool.12 mph50%30.04 "Hg4 mi
11:20 AM48 °FCool.12 mph54%30.07 "Hg2 mi
10:20 AM46 °FCool.6 mph66%30.09 "Hg2 mi
9:20 AM43 °FQuite cool.6 mph76%30.12 "Hg2 mi
8:20 AM41 °FQuite cool.8 mph87%30.15 "Hg2 mi
7:20 AM39 °FChilly.2 mph93%30.15 "Hg2 mi
6:20 AM39 °FChilly.5 mph87%30.15 "Hg4 mi
5:20 AM37 °FPassing clouds.5 mph93%30.18 "HgN/A
4:20 AM39 °FPassing clouds.5 mph93%30.18 "HgN/A
3:20 AM41 °FPartly cloudy.7 mph87%30.18 "HgN/A
2:20 AM41 °FPassing clouds.7 mph87%30.18 "HgN/A
1:20 AM43 °FPassing clouds.6 mph81%30.18 "HgN/A
12:20 AM43 °FPassing clouds.9 mph81%30.15 "HgN/A
11:20 PM
Fri, Mar 27
43 °FPassing clouds.9 mph81%30.15 "HgN/A
10:20 PM43 °FPassing clouds.9 mph81%30.15 "HgN/A
9:20 PM43 °FPassing clouds.13 mph81%30.12 "HgN/A
8:20 PM43 °FPassing clouds.14 mph81%30.12 "HgN/A
7:20 PM43 °FMostly cloudy.12 mph87%30.09 "HgN/A
6:20 PM43 °FDrizzle. More clouds than sun.13 mph87%30.07 "Hg3 mi
5:20 PM45 °FDrizzle. Partly sunny.17 mph76%30.01 "HgN/A
4:20 PM45 °FSprinkles. Partly sunny.20 mph76%29.98 "HgN/A
3:20 PM45 °FPartly sunny.18 mph76%29.95 "HgN/A
Weather by CustomWeather, © 2015

See weather overviewHow to use our weather pages